Location: Newark
(43.5831°N, 21.3381°E)
Time: 01:31:21
(UTC+00:00)

Envisat - Pass Details

Date: 19 December 2019
Orbit: 764 x 766 km, 98.1° (Epoch: 23 January)

Event Time Altitude Azimuth Distance (km) Brightness Sun altitude
Rises 17:00:37 0° 184° (S) 3,218 6.4 -21.0°
Reaches altitude 10° 17:03:01 10° 191° (S) 2,297 5.7 -21.4°
Maximum altitude 17:07:49 43° 262° (W) 1,076 4.2 -22.2°
Drops below altitude 10° 17:12:39 10° 333° (NNW) 2,313 5.6 -23.1°
Sets 17:15:05 0° 341° (NNW) 3,243 6.4 -23.5°
